Theta_e
338 340 338 337 338 338 339 338 339 339 338 337 337 337 336 334 332 328 322 320 321 329 333 332 332 330 330 330 327 322 321 322 321 323 324 324 325 326 325 323 320 322 325
338 337 336 338 338 337 338 337 337 336 336 337 337 337 337 336 334 333 330 324 321 322 327 333 331 332 328 329 330 326 322 320 319 321 322 324 325 322 318 315 316 320 318
336 332 333 333 334 335 334 334 335 336 335 335 335 335 335 335 335 335 334 332 326 322 323 326 331 332 332 328 329 330 325 321 318 316 316 317 320 318 315 311 311 315 315
324 322 325 324 326 325 320 321 322 323 332 334 335 335 334 335 334 334 335 334 334 329 322 322 325 330 333 329 326 329 329 323 319 316 317 311 311 314 312 310 310 311 315
308 308 308 308 308 308 308 308 309 310 313 318 325 331 333 334 332 332 335 334 334 334 330 323 322 325 330 332 327 327 329 327 324 317 315 314 310 309 309 308 308 308 312
306 305 305 304 303 304 304 304 304 304 306 308 310 313 318 325 331 334 333 333 335 334 334 330 323 323 325 331 332 327 328 329 325 320 314 315 311 308 307 307 306 305 307
300 300 300 300 299 299 299 299 299 300 301 303 307 307 308 309 315 320 326 328 330 333 333 333 330 323 324 326 332 331 330 329 328 325 315 315 310 308 307 306 312 309 312
298 298 297 297 297 297 297 297 297 299 301 303 307 311 311 310 309 315 326 327 327 329 330 331 331 330 324 324 329 332 330 330 328 326 321 314 311 308 306 307 315 311 316
297 298 298 298 297 297 296 297 298 300 308 308 309 310 312 312 312 312 311 314 315 324 328 328 329 331 330 327 325 327 332 330 329 326 323 314 314 310 307 308 312 314 315
302 302 301 301 300 299 299 299 300 301 306 308 308 309 309 310 312 312 311 312 312 311 311 321 324 329 330 329 329 328 326 330 329 327 323 316 314 312 314 307 311 314 315
302 302 302 302 302 303 303 302 302 302 303 305 305 305 306 306 305 308 310 310 310 311 311 310 311 317 318 329 329 330 327 329 329 328 324 317 313 309 314 313 310 313 314
302 302 301 301 302 302 302 303 304 304 303 303 302 302 302 301 301 302 307 308 309 310 310 310 310 311 316 314 327 329 328 326 329 328 325 317 315 312 315 315 312 311 312
301 301 301 300 300 299 299 299 299 299 299 299 299 300 301 301 301 301 303 304 307 307 308 308 310 310 312 313 321 328 329 326 328 329 325 318 317 315 316 315 313 313 313
301 301 300 300 299 299 299 299 299 299 299 299 299 299 300 300 300 301 303 305 306 307 307 306 307 307 310 311 313 324 328 328 329 329 325 320 321 317 315 315 313 314 313
301 301 301 300 300 300 300 300 300 300 300 300 299 299 299 299 300 300 301 302 304 306 306 306 305 306 311 310 312 316 326 327 328 327 323 320 323 315 315 314 314 314 312
301 301 300 300 300 300 301 301 300 299 298 298 298 298 298 298 298 298 299 300 301 302 303 304 303 305 307 309 311 313 318 325 328 323 322 321 320 315 314 315 314 313 312
300 300 299 299 299 299 301 300 298 297 297 297 297 297 297 297 297 297 298 298 301 302 303 305 305 304 305 309 310 312 313 322 324 323 321 320 319 316 314 314 313 313 312
298 299 299 298 298 298 299 297 296 296 296 296 297 297 297 296 296 297 297 297 298 301 302 303 303 303 305 308 311 311 313 320 323 322 320 322 317 316 314 314 313 313 311
298 298 298 298 298 298 296 295 293 295 294 294 296 296 296 296 295 295 296 297 297 299 300 302 303 303 305 308 309 309 312 317 320 319 319 318 317 316 314 314 313 312 310
297 298 298 298 297 295 294 292 292 292 292 293 294 294 295 294 294 294 294 296 297 298 301 301 302 302 304 306 309 309 313 316 317 317 319 319 317 315 314 314 313 311 310
294 296 297 296 295 293 291 291 291 291 291 291 293 293 293 293 293 294 294 295 296 297 298 301 300 300 301 305 309 308 311 315 317 316 316 317 316 315 314 313 313 311 310
292 292 293 292 292 291 291 291 290 290 291 291 292 293 292 291 293 294 294 294 295 296 296 298 298 299 300 302 306 307 310 314 314 316 315 313 316 315 314 313 312 311 309
292 291 291 291 290 291 290 290 290 290 290 291 291 292 291 290 291 292 294 294 294 295 296 297 298 299 300 301 303 306 308 312 314 314 313 312 313 313 313 312 312 311 309
293 292 291 289 290 290 291 290 290 290 290 290 291 291 291 293 292 292 293 294 295 294 295 296 298 299 300 300 303 304 307 309 313 313 313 310 311 311 311 312 311 311 308
294 292 291 288 290 289 289 289 289 289 289 289 290 292 292 293 293 293 293 293 294 294 295 295 296 297 300 303 303 302 305 308 310 311 310 310 309 308 309 310 311 309 307
293 292 291 290 289 289 288 288 289 289 289 290 291 292 292 293 293 293 293 293 294 294 294 295 296 297 299 302 305 303 303 307 308 309 309 308 308 307 305 307 310 309 307
Wind_Speed
13 14 16 17 18 18 13 18 19 23 28 30 33 36 36 35 35 35 35 36 37 36 33 31 30 26 23 21 22 22 24 23 23 24 24 24 24 23 22 20 19 20 20
14 14 18 19 22 21 24 23 23 22 26 26 26 29 35 38 39 39 39 38 40 41 40 37 35 34 30 27 26 25 27 28 26 24 25 25 25 24 23 21 21 21 21
18 13 22 20 22 24 24 26 28 28 28 30 30 31 33 35 34 34 43 42 41 43 44 43 41 40 37 32 29 29 29 30 28 28 27 26 26 25 25 22 22 22 21
14 16 19 22 24 23 22 22 21 21 22 19 21 31 37 35 36 38 37 35 45 45 46 47 47 45 42 38 34 32 31 31 29 31 30 28 27 27 26 24 23 23 24
15 17 19 21 22 22 22 23 22 22 23 24 27 26 23 35 40 38 40 41 41 43 48 49 50 50 47 46 41 37 34 33 31 30 34 31 27 27 27 25 26 26 28
21 23 25 25 26 26 26 26 26 25 24 26 29 30 32 30 31 36 42 41 43 44 42 51 53 55 54 51 48 44 40 37 34 31 34 35 30 29 28 27 27 27 29
25 26 27 28 28 27 25 23 26 27 27 26 29 34 35 33 33 34 34 32 41 45 45 41 55 58 59 57 54 51 46 41 38 35 34 37 35 31 31 31 28 28 28
26 25 25 24 23 23 20 19 19 22 23 23 24 27 21 30 28 21 20 23 28 41 48 49 48 58 62 62 61 58 53 47 44 40 37 39 37 34 35 34 33 30 31
28 24 21 20 18 18 16 14 15 15 16 17 15 15 13 10 29 32 35 33 27 24 31 46 55 50 61 61 65 65 61 55 50 45 41 40 39 38 39 38 36 35 35
27 23 19 15 12 10 10 11 11 12 12 14 15 15 17 22 23 30 32 41 44 44 45 33 22 49 56 64 65 68 68 63 56 51 45 42 42 42 42 41 40 39 38
23 19 15 11 8 8 9 10 11 12 13 15 17 20 23 27 30 30 34 32 42 45 43 40 57 46 24 60 69 71 71 69 61 55 49 45 46 44 45 46 44 43 42
21 17 13 11 10 9 9 10 9 9 11 14 17 20 21 23 29 32 36 39 36 46 43 42 46 55 56 50 69 74 77 73 67 60 55 50 49 47 48 49 47 47 47
20 15 13 12 13 12 12 13 13 14 14 15 18 19 21 25 28 29 30 41 40 47 48 43 40 42 54 68 41 81 83 76 71 66 59 55 52 49 52 51 47 48 49
18 19 15 14 13 14 14 15 16 17 18 19 20 22 24 25 26 25 27 30 40 47 43 54 45 42 43 56 63 54 86 71 76 72 65 57 52 50 58 55 53 52 52
22 21 19 16 17 18 18 19 21 21 21 21 21 23 25 26 27 28 29 29 37 37 40 36 44 36 34 38 47 51 75 74 76 78 73 64 57 54 61 57 57 56 54
22 23 24 22 19 21 24 23 23 23 24 23 24 24 23 24 26 28 31 33 33 35 39 34 43 39 40 41 39 56 48 79 81 79 72 68 60 61 66 63 62 60 55
21 23 22 23 23 25 25 24 23 25 25 24 21 23 22 22 24 25 28 27 27 30 37 40 39 43 43 38 34 41 40 69 72 79 78 70 65 67 68 67 65 63 58
21 22 23 24 28 29 30 24 22 22 22 22 20 20 20 21 22 23 24 28 28 26 30 40 41 43 42 37 36 32 34 61 60 66 84 68 72 69 71 68 66 64 59
22 23 26 28 30 31 27 22 21 18 22 21 19 20 19 20 21 22 24 27 28 28 28 30 42 43 41 34 28 34 29 41 68 76 82 77 73 70 72 68 67 64 59
26 27 28 29 30 28 22 20 18 20 20 19 17 18 18 18 19 21 25 26 27 28 29 30 34 36 33 32 29 28 25 44 50 68 74 81 73 73 70 69 67 63 60
26 28 29 29 27 21 19 17 19 19 18 17 16 16 17 17 16 17 22 24 23 27 28 31 35 36 29 30 25 24 25 32 58 57 71 79 78 75 71 68 66 62 60
27 26 23 23 21 19 17 17 17 18 16 15 16 16 17 18 16 15 18 18 19 23 26 27 32 31 33 29 26 23 16 28 34 51 62 63 79 76 75 72 70 64 59
27 26 24 22 21 18 17 17 17 17 15 14 14 16 17 18 19 20 16 17 16 16 20 26 30 30 32 28 27 25 19 28 40 42 58 50 71 71 76 75 71 66 62
29 27 27 24 21 19 17 19 18 16 16 15 14 15 17 18 20 19 20 18 18 17 16 19 23 28 24 22 24 19 18 19 37 42 58 39 53 62 68 76 70 67 63
30 28 27 26 22 21 17 17 15 15 16 16 14 13 14 13 15 17 20 22 22 18 15 17 20 23 22 17 12 19 19 22 23 37 42 43 39 44 62 70 72 64 64
31 26 26 25 23 22 19 15 13 14 16 16 14 13 12 10 9 14 19 21 21 22 20 18 15 14 18 16 10 11 15 22 24 31 38 37 49 50 34 58 71 68 65
Wind_Direction
277 283 284 283 282 286 291 288 288 279 274 273 272 272 269 261 258 256 254 252 252 251 249 249 250 241 240 239 236 233 229 225 218 209 207 202 196 201 203 201 195 193 183
272 277 279 277 278 281 279 274 278 283 283 281 287 281 277 274 255 254 254 251 249 250 250 247 246 247 240 238 237 237 235 232 233 218 213 206 205 207 207 209 203 197 192
266 271 279 274 271 272 273 273 273 272 276 278 277 280 281 283 283 270 251 251 249 248 249 250 246 246 247 240 234 236 237 237 236 228 223 216 213 214 215 210 207 201 201
275 280 277 277 279 279 283 283 283 279 267 265 281 284 276 278 278 277 275 262 250 245 245 245 247 245 244 245 241 235 235 236 238 234 226 227 224 219 218 211 205 203 202
289 285 282 281 281 282 283 285 286 290 287 278 274 264 275 279 274 278 277 274 267 256 243 243 244 244 242 243 242 240 237 236 239 241 229 228 230 226 221 212 208 205 203
295 295 293 291 289 287 287 288 288 285 286 286 282 281 279 274 279 282 276 275 275 273 259 243 242 242 242 239 240 240 236 237 238 240 233 225 225 227 219 211 206 201 195
307 304 300 296 294 294 298 300 299 298 294 294 293 285 280 280 278 281 286 289 278 269 273 263 244 242 241 239 237 239 237 234 235 238 235 230 224 220 214 201 196 194 184
312 309 304 298 296 296 302 305 306 308 309 307 308 312 311 294 285 280 274 273 277 268 266 269 264 245 243 240 236 234 234 231 231 233 233 226 221 214 208 200 190 188 179
330 323 310 300 295 296 299 305 305 302 311 311 317 315 313 291 301 290 282 279 285 270 274 256 259 258 245 238 239 236 232 231 230 229 230 225 214 208 205 198 192 185 179
340 338 329 320 315 304 299 300 293 284 286 304 306 297 299 302 305 300 296 293 291 288 281 276 276 247 247 243 234 235 233 231 229 227 227 222 209 205 199 198 193 184 179
341 346 357 3 346 338 328 311 305 299 294 297 300 299 292 293 299 296 294 300 295 291 295 294 274 269 286 238 235 232 234 231 228 225 225 219 212 208 202 195 193 185 185
341 342 4 1 8 354 340 337 326 310 301 294 295 292 294 298 298 299 293 290 288 299 297 293 294 276 272 279 235 232 232 232 228 224 220 217 212 205 200 196 192 191 187
343 339 338 344 345 348 344 339 336 325 317 308 300 300 291 285 291 292 288 289 288 280 283 294 289 291 277 269 285 227 229 231 227 222 217 211 207 202 197 196 193 190 188
324 330 333 335 335 332 328 326 321 318 314 310 307 303 299 293 289 289 286 287 291 286 281 277 286 291 294 274 263 240 220 232 225 220 216 210 212 212 201 198 193 191 190
309 315 312 314 313 310 310 312 307 306 303 299 300 301 301 300 295 287 286 286 278 290 286 288 298 298 286 284 265 276 231 230 225 219 210 206 214 206 199 195 194 193 193
301 302 302 296 296 297 297 299 298 295 293 295 298 296 298 298 295 293 290 287 280 283 271 285 293 296 297 289 265 255 245 231 224 212 205 205 208 200 197 193 193 196 195
288 292 299 294 295 296 296 297 293 289 292 294 293 294 299 302 301 300 297 290 286 277 287 295 285 293 293 289 285 255 274 214 225 213 209 201 204 198 195 194 194 196 195
291 283 282 286 290 295 301 297 297 296 299 298 298 300 302 304 305 303 301 296 291 296 282 291 297 300 293 285 286 273 256 221 229 224 206 205 200 197 196 195 196 196 196
284 275 276 277 285 290 291 290 296 295 297 298 306 302 304 306 308 310 305 305 299 291 296 295 295 304 307 286 275 273 238 232 210 210 204 201 199 196 196 196 196 197 198
281 275 274 277 281 286 286 290 287 291 295 300 302 300 305 306 308 308 308 309 310 300 297 300 297 313 306 293 277 286 241 227 206 207 206 205 199 197 196 197 197 197 197
289 276 274 275 279 280 284 284 289 289 291 299 304 303 305 306 305 305 306 312 312 306 302 298 302 321 324 310 274 280 248 227 215 223 205 199 198 196 195 199 198 196 197
295 287 277 275 279 279 280 283 287 290 291 299 301 304 306 311 308 304 304 306 308 307 305 304 305 311 318 322 317 288 264 227 200 207 209 191 195 192 195 198 198 196 198
292 289 280 276 279 278 281 282 287 286 290 291 295 299 304 305 306 309 308 309 308 304 302 301 298 306 315 315 322 313 255 238 200 193 190 188 188 188 195 197 198 197 197
289 288 284 279 279 275 275 278 283 284 285 286 290 292 297 305 309 310 316 318 314 313 304 299 294 294 305 312 320 305 279 234 207 197 191 178 185 184 190 195 197 195 193
283 283 283 282 269 269 266 272 277 283 283 285 289 294 293 298 303 311 314 318 317 318 313 301 293 291 281 305 332 328 299 246 179 177 177 175 175 171 179 189 195 194 190
273 276 278 279 274 269 261 262 268 280 286 291 295 298 296 293 291 303 310 315 316 321 327 320 305 296 280 304 275 314 307 243 187 171 175 171 170 169 162 184 190 190 188